Location: Beloeil
(45.5670°N, 73.2000°W)
Time: 01:56:46
(UTC-05:00)

Daily predictions for brighter satellites

Satellite Brightness Start Highest point End
(mag) Time Altitude Azimuth Time Altitude Azimuth Time Altitude Azimuth
ATLAS 2AS CENTAUR R/B 4.1 02:45:32 36° N 02:45:32 36° N 02:50:52 10° NNE
CENTAUR R/B 3.9 03:08:18 40° SE 03:08:18 40° SE 03:13:17 10° SE
ADEOS II 4.1 03:07:04 10° NNE 03:08:55 22° NNE 03:08:55 22° NNE
Cosmos 1697 Rocket 3.7 03:47:04 36° SE 03:48:17 41° ESE 03:53:31 10° NE
Cosmos 2298 Rocket 4.4 03:54:11 62° E 03:54:11 62° E 03:59:08 10° NNE
SJ 16-02 3.9 03:51:42 10° SE 03:54:45 19° E 03:57:49 10° NE
Cosmos 2297 Rocket 4.4 04:09:39 11° S 04:09:39 11° S 04:09:56 10° S
MOS 1-B 4.2 03:59:48 10° NNE 04:05:32 83° NW 04:05:32 83° NW
Lacrosse 5 rocket 2.9 04:10:32 28° ESE 04:10:32 28° ESE 04:12:32 10° SE
Cosmos 2150 Rocket 3.9 04:10:42 77° SE 04:10:50 78° ESE 04:15:59 10° NNE
CZ-4B R/B 3.6 04:09:45 10° NNE 04:15:09 61° ESE 04:19:30 16° S
BREEZE-M DEB (TANK) 4.2 04:18:42 19° SE 04:18:42 19° SE 04:19:23 10° SE
Cosmos 2098 Rocket 4.3 04:18:59 48° NW 04:18:59 48° NW 04:24:49 10° N
Cosmos 1869 Rocket 3.8 04:13:48 10° N 04:18:14 69° E 04:22:39 10° SSE
IDEFIX/ARIANE 42P 4.4 04:16:51 10° NE 04:21:26 30° E 04:25:57 10° SSE
Cosmos 1934 Rocket 4.3 04:17:55 10° S 04:24:12 67° E 04:30:31 10° NNE
Cosmos 1707 Rocket 4.3 04:22:32 14° SSE 04:26:15 53° E 04:30:38 10° NNE
CZ-4B DEB 4.1 04:24:20 10° NNE 04:29:51 88° WNW 04:32:51 28° SSW
Cosmos 2123 Rocket 4.2 04:24:10 10° N 04:30:24 73° E 04:36:38 10° SSE
Okean O Rocket 1.5 04:27:55 10° N 04:32:14 75° NW 04:32:14 75° NW
Cosmos 2263 Rocket 4.1 04:29:00 10° N 04:33:49 27° NE 04:38:36 10° ESE
SJ-6F 4.4 04:32:04 10° NNE 04:36:10 80° ESE 04:37:14 48° S
Cosmos 158 Rocket 3.9 04:31:29 10° NNW 04:36:31 85° ENE 04:41:40 10° SSE
Cosmos 1048 Rocket 4.4 04:33:49 10° NNW 04:38:56 61° ENE 04:44:00 10° SE
Cosmos 2278 3.8 04:38:23 50° W 04:39:16 56° WNW 04:44:55 10° NNE
Cosmos 1821 Rocket 3.9 04:40:17 17° SSW 04:45:06 66° W 04:51:19 10° N
Cosmos 1898 Rocket 4.3 04:45:51 33° NW 04:45:51 33° NW 04:50:14 10° N
PAYLOAD B 4.1 04:42:10 10° N 04:47:37 63° WNW 04:50:42 26° SW
Genesis I 3.9 04:48:23 39° NNW 04:48:23 39° NNW 04:51:40 10° NNE
Cosmos 1937 Rocket 3.9 04:48:09 41° WNW 04:48:22 41° WNW 04:53:22 10° N
Cosmos 2322 Rocket 4.4 04:45:34 10° SSE 04:50:08 26° ESE 04:54:45 10° NE
SKYMED 2 4.0 04:46:21 10° SSE 04:50:38 63° ENE 04:54:57 10° N
ADEOS II 3.8 04:47:49 10° NNW 04:49:53 17° NW 04:49:53 17° NW
Cosmos 2227 4.3 04:47:43 10° NNW 04:53:23 74° ENE 04:59:00 10° SSE
CENTAUR R/B 4.0 04:55:36 26° WSW 04:55:36 26° WSW 05:01:34 10° SSW
USA 116 4.1 04:52:11 10° S 04:56:42 73° WSW 05:01:47 10° NNW
Cosmos 1535 Rocket 4.4 04:50:55 10° SSW 04:56:59 63° W 05:03:04 10° N
Cosmos 1125 Rocket 3.8 04:52:15 10° S 04:57:23 68° ESE 05:02:34 10° NNE
Cosmos 372 Rocket 4.2 04:52:30 10° S 04:57:33 69° ESE 05:02:39 10° NNE
Cosmos 1862 3.3 04:53:56 10° NNW 04:57:49 53° W 05:01:42 10° S
Cosmos 1933 3.3 04:57:07 10° S 05:01:13 85° E 05:05:17 10° N
COSMOS 2455 2.9 04:55:09 10° NNW 05:01:15 86° ENE 05:07:17 10° SSE
Cosmos 1980 Rocket 2.1 04:55:53 11° SSW 05:01:27 90° WNW 05:07:09 10° NNE
Meteor 2-10 Rocket 3.4 04:58:36 20° SSW 05:02:01 55° WNW 05:06:57 10° N
Cosmos 1656 4.2 05:01:28 33° W 05:02:38 37° NW 05:07:43 10° NNE
IRS-1C Rocket 4.0 04:58:48 10° N 05:04:03 67° WNW 05:09:15 10° SSW
Cosmos 2369 4.4 05:05:30 30° W 05:07:00 34° NW 05:12:13 10° NNE
CZ-2C R/B 3.7 05:03:32 10° S 05:08:11 63° WSW 05:12:46 10° NNW
CZ-3 R/B 3.8 04:59:18 19° WSW 05:08:40 30° SSW 05:15:02 10° SSE
Landsat 4 4.0 05:08:27 10° SSE 05:12:09 68° ENE 05:15:52 10° N
Meteor 1-31 Rocket 3.6 05:13:48 10° N 05:17:10 29° WNW 05:17:16 29° WNW
ATLAS 5 CENTAUR R/B 3.0 05:13:05 10° S 05:17:17 40° ESE 05:21:52 10° NE
BREEZE M DEB (TANK) 1.8 05:18:00 36° NNW 05:18:08 37° N 05:20:16 10° ENE
Cosmos 1441 Rocket 3.4 05:19:56 10° S 05:23:54 77° E 05:27:55 10° NNE
Okean-O 2.6 05:22:36 10° NNE 05:27:04 87° WNW 05:31:30 10° SSW
Feng Yun 1-1 Rocket 4.2 05:22:23 10° NNE 05:27:56 83° WNW 05:33:36 10° SSW
Geosat 4.0 05:23:48 10° SSE 05:28:50 86° WSW 05:33:54 10° NNW
Cosmos 1733 Rocket 2.9 05:25:03 10° NNW 05:29:25 71° W 05:33:48 10° S
Meteor 2-17 Rocket 4.4 05:23:43 10° SSW 05:29:41 61° WNW 05:35:44 10° N
Cosmos 1605 Rocket 4.0 05:24:30 10° SSW 05:30:32 59° WNW 05:36:33 10° N
EXPRESS MD2 4.1 05:28:50 21° WNW 05:31:33 69° SSW 05:39:32 10° SE
Cosmos 1862 Rocket 3.5 05:27:48 10° S 05:32:08 89° E 05:36:34 10° N
Cosmos 1697 Rocket 3.4 05:28:51 18° WSW 05:32:19 34° NW 05:37:26 10° NNE
SJ 16-02 1.6 05:28:44 10° SW 05:33:00 46° WNW 05:37:16 10° N
SL-16 R/B 2.9 05:29:11 10° S 05:34:43 59° ESE 05:40:18 10° NNE
Meteor 1-26 Rocket 4.3 05:28:52 10° S 05:34:46 90° WNW 05:40:38 10° N
Cosmos 2100 Rocket 4.4 05:28:52 10° S 05:34:56 67° E 05:41:03 10° NNE
Cosmos 1269 Rocket 4.1 05:31:09 10° NNW 05:36:19 58° WSW 05:41:29 10° S
COSMO-SKYMED 1 3.0 05:34:42 10° SSW 05:38:48 40° W 05:42:55 10° NNW
MTI 4.0 05:37:37 10° S 05:40:39 43° W 05:43:44 10° NNW
Cosmos 494 Rocket 4.1 05:36:25 10° NNW 05:41:34 80° ENE 05:46:41 10° SSE
COSMOS 2441 4.4 05:38:20 10° NNE 05:43:16 90° NW 05:48:11 10° SSW
CZ-2C R/B 2.5 05:41:42 10° N 05:46:45 70° WNW 05:51:52 10° SSW
Lacrosse 5 rocket 3.0 05:46:15 14° WSW 05:47:19 15° SW 05:49:41 10° SSW
NOAA 6 4.3 05:44:06 10° N 05:49:04 48° WNW 05:53:59 10° SW
Cosmos 405 3.8 05:46:37 10° NNW 05:49:46 30° W 05:52:55 10° SSW
Cosmos 1437 Rocket 3.5 05:46:38 10° N 05:50:42 61° ENE 05:54:39 10° SSE
BREEZE-M DEB (TANK) 3.1 05:50:13 13° WNW 05:53:02 73° SSW 06:03:20 10° ESE
Meteor 1-14 Rocket 4.3 05:47:52 10° NNW 05:53:50 68° W 05:59:41 10° S
CZ-4B R/B 4.3 05:51:13 10° N 05:55:17 22° WNW 05:59:25 10° WSW
Meteor 1-20 Rocket 4.3 05:52:03 10° NNW 05:57:54 74° W 06:03:39 10° S
Cosmos 2061 Rocket 4.2 05:53:16 10° S 05:59:27 81° E 06:05:41 10° N
OPS 8737 4.5 05:57:11 10° SW 06:00:57 87° SE 06:04:19 10° NE
IDEFIX/ARIANE 42P 3.0 05:56:16 10° N 06:01:07 39° WNW 06:05:55 10° SW
Cosmos 1606 2.6 05:57:22 10° S 06:01:11 86° W 06:05:00 10° N
PAYLOAD A 4.4 05:57:39 10° N 06:02:00 36° WNW 06:06:25 10° SW
Cosmos 1802 Rocket 4.2 05:57:51 10° S 06:04:15 86° E 06:10:37 10° N
Cosmos 2173 Rocket 4.0 05:58:59 10° S 06:05:11 80° W 06:11:21 10° N
Cosmos 1459 Rocket 4.0 05:59:08 10° SSW 06:05:22 79° W 06:11:46 10° N
Cosmos 2016 Rocket 4.3 05:59:10 10° S 06:05:26 76° E 06:11:49 10° NNE
SMAP 3.7 06:05:30 10° NNE 06:10:09 63° ESE 06:14:45 10° S
Cosmos 1484 Rocket 2.8 06:06:57 10° NNE 06:10:57 85° WNW 06:14:58 10° SSW
CSL-04 Rocket 4.3 06:08:55 10° NNE 06:14:11 62° ESE 06:19:27 10° S
Aureole 3 3.7 06:12:12 10° NW 06:14:43 24° W 06:17:14 10° SSW
Meteor 1-4 Rocket 3.5 06:11:04 10° N 06:14:46 56° ENE 06:18:30 10° SSE
